sat.trackr.live / text

‹ back to catalog

STARLINK-35477

NORAD 66338 · 2025-253V

PAYLOAD ACTIVE UNKNOWN

§ Identity

Operator
Country
US
Launch date
2025-11-06
Launch site
AFETR
Launch vehicle
Mass (kg)
RCS (m²)

Purposes: comms

External: N2YO · Heavens-Above · Gunter

§ Orbital elements

Epoch: 2026-05-24T23:35:00.363840Z

Period
94.27 min
Inclination
43.0018°
Eccentricity
0.0001458
Mean motion
15.27594351 rev/d
Perigee alt
482.0 km
Apogee alt
484.0 km
Semi-major
6,861.1 km
B*
5.2528e-4
RAAN
141.5499°
Arg perigee
269.9509°
Mean anomaly
90.1176°
Rev number
3,191

§ Raw data

STARLINK-354771 66338U 25253V   26144.98264310  .00014227  00000+0  52528-3 0  99932 66338  43.0018 141.5499 0001458 269.9509  90.1176 15.27594351 31915

JSON: /api/v1/satellites/66338 · /tle

For live sub-satellite position, see the globe view (requires WebGL).

§ Visibility from observer

Set your observer location to see the next 7 days of passes ≥ 10°. The values pass through the URL so the page stays shareable.

No JS? Fill the form by hand. The geolocation button needs JavaScript.